Hourly Weather Kaflarnia

Today, 9 March, Tuesday

Time Temperature Precipitation Wind Pressure Humidity
00:00 -1°C° 0 mm 1 mps 748 mmHg 69%
01:00 -1°C° 0 mm 1 mps 747 mmHg 65%
02:00 -1°C° 0 mm 1 mps 747 mmHg 65%
03:00 -1°C° 0 mm 1 mps 747 mmHg 65%
04:00 -2°C° 0 mm 0 mps 747 mmHg 65%
05:00 -1°C° 0 mm 1 mps 747 mmHg 65%
06:00 -1°C° 0 mm 1 mps 747 mmHg 65%
07:00 -1°C° 0 mm 1 mps 747 mmHg 65%
08:00 0°C° 0 mm 1 mps 747 mmHg 60%
09:00 +1°C° 0 mm 1 mps 747 mmHg 55%
10:00 +2°C° 0 mm 1 mps 747 mmHg 50%
11:00 +2°C° 0 mm 1 mps 747 mmHg 47%
12:00 +2°C° 0 mm 1 mps 747 mmHg 45%
13:00 +3°C° 0 mm 1 mps 747 mmHg 42%
14:00 +3°C° 0 mm 1 mps 747 mmHg 42%
15:00 +3°C° 0 mm 1 mps 746 mmHg 42%
16:00 +2°C° 0 mm 1 mps 746 mmHg 42%
17:00 +2°C° 0 mm 1 mps 746 mmHg 46%
18:00 +1°C° 0 mm 1 mps 746 mmHg 51%
19:00 -2°C° 0 mm 2 mps 746 mmHg 56%
20:00 -2°C° 0 mm 2 mps 746 mmHg 58%
21:00 -3°C° 0 mm 2 mps 746 mmHg 61%
22:00 -3°C° 0 mm 2 mps 747 mmHg 64%
23:00 -3°C° 0 mm 2 mps 747 mmHg 64%

Tomorrow, 10 March, Wednesday

Time Temperature Precipitation Wind Pressure Humidity
00:00 -3°C° 0 mm 2 mps 746 mmHg 65%
01:00 -3°C° 0 mm 2 mps 746 mmHg 66%
02:00 -1°C° 0 mm 1 mps 746 mmHg 65%
03:00 -1°C° 0 mm 1 mps 746 mmHg 65%
04:00 -1°C° 0 mm 1 mps 746 mmHg 64%
05:00 -1°C° 0 mm 1 mps 746 mmHg 62%
06:00 -1°C° 0 mm 1 mps 746 mmHg 61%
07:00 0°C° 0 mm 1 mps 746 mmHg 59%
08:00 +1°C° 0 mm 1 mps 747 mmHg 53%
09:00 +2°C° 0 mm 1 mps 747 mmHg 47%
10:00 +3°C° 0 mm 1 mps 747 mmHg 41%
11:00 +3°C° 0 mm 1 mps 747 mmHg 39%
12:00 +4°C° 0 mm 1 mps 747 mmHg 38%
13:00 +4°C° 0 mm 1 mps 747 mmHg 36%
14:00 +4°C° 0 mm 1 mps 746 mmHg 36%
15:00 +4°C° 0 mm 1 mps 746 mmHg 36%
16:00 +3°C° 0 mm 0 mps 746 mmHg 36%
17:00 +3°C° 0 mm 1 mps 746 mmHg 40%
18:00 +2°C° 0 mm 1 mps 747 mmHg 45%
19:00 -1°C° 0 mm 2 mps 747 mmHg 49%
20:00 -2°C° 0 mm 2 mps 747 mmHg 50%
21:00 -2°C° 0 mm 2 mps 747 mmHg 51%
22:00 -2°C° 0 mm 2 mps 747 mmHg 52%
23:00 -2°C° 0 mm 2 mps 747 mmHg 52%

Day after tomorrow, 11 March, Thursday

Time Temperature Precipitation Wind Pressure Humidity
00:00 -2°C° 0 mm 2 mps 747 mmHg 52%
01:00 -2°C° 0 mm 2 mps 747 mmHg 52%
02:00 -2°C° 0 mm 2 mps 746 mmHg 52%
03:00 -2°C° 0 mm 3 mps 746 mmHg 52%
04:00 -2°C° 0 mm 3 mps 745 mmHg 51%
05:00 -2°C° 0 mm 3 mps 745 mmHg 50%
06:00 -3°C° 0 mm 4 mps 745 mmHg 48%
07:00 -2°C° 0 mm 4 mps 745 mmHg 46%
08:00 -1°C° 0 mm 5 mps 745 mmHg 44%
09:00 0°C° 0 mm 5 mps 744 mmHg 41%
10:00 +1°C° 0 mm 6 mps 744 mmHg 39%
11:00 +2°C° 0 mm 6 mps 743 mmHg 42%
12:00 +3°C° 0 mm 7 mps 742 mmHg 44%
13:00 +3°C° 0 mm 7 mps 742 mmHg 47%
14:00 +3°C° 0.1 mm 7 mps 741 mmHg 55%
15:00 +2°C° 0.1 mm 7 mps 740 mmHg 63%
16:00 +2°C° 0.1 mm 6 mps 739 mmHg 71%
17:00 +2°C° 1 mm 7 mps 738 mmHg 78%
18:00 0°C° 1 mm 8 mps 738 mmHg 85%
19:00 0°C° 1 mm 9 mps 738 mmHg 92%
20:00 +1°C° 0.6 mm 9 mps 737 mmHg 89%
21:00 +1°C° 0.6 mm 9 mps 737 mmHg 87%
22:00 +1°C° 0.6 mm 9 mps 736 mmHg 85%
23:00 +1°C° 0.3 mm 8 mps 736 mmHg 86%

12 March, Friday

Time Temperature Precipitation Wind Pressure Humidity
00:00 +2°C° 0.3 mm 8 mps 736 mmHg 87%
01:00 +3°C° 0.3 mm 7 mps 736 mmHg 88%
02:00 +3°C° 0.3 mm 7 mps 736 mmHg 89%
03:00 +3°C° 0.3 mm 7 mps 736 mmHg 90%
04:00 +3°C° 0.3 mm 6 mps 736 mmHg 91%
05:00 +3°C° 0 mm 6 mps 737 mmHg 88%
06:00 +3°C° 0 mm 6 mps 737 mmHg 86%
07:00 +2°C° 0 mm 6 mps 737 mmHg 83%
08:00 +3°C° 0 mm 7 mps 738 mmHg 76%
09:00 +4°C° 0 mm 8 mps 738 mmHg 68%
10:00 +5°C° 0 mm 10 mps 738 mmHg 60%
11:00 +5°C° 0 mm 9 mps 739 mmHg 61%
12:00 +4°C° 0 mm 7 mps 739 mmHg 62%
13:00 +4°C° 0 mm 6 mps 740 mmHg 62%
14:00 +5°C° 0 mm 6 mps 740 mmHg 60%
15:00 +5°C° 0 mm 6 mps 740 mmHg 57%
16:00 +6°C° 0 mm 5 mps 740 mmHg 55%
17:00 +5°C° 0 mm 4 mps 740 mmHg 60%
18:00 +4°C° 0 mm 3 mps 740 mmHg 65%
19:00 +4°C° 0 mm 2 mps 740 mmHg 71%
20:00 +3°C° 0 mm 3 mps 740 mmHg 72%
21:00 +2°C° 0 mm 3 mps 740 mmHg 74%
22:00 +2°C° 0 mm 3 mps 740 mmHg 76%
23:00 +1°C° 0 mm 4 mps 740 mmHg 76%

13 March, Saturday

Time Temperature Precipitation Wind Pressure Humidity
00:00 +1°C° 0 mm 4 mps 740 mmHg 76%
01:00 +1°C° 0 mm 4 mps 739 mmHg 77%
02:00 +1°C° 0 mm 5 mps 739 mmHg 78%
03:00 +1°C° 0 mm 5 mps 739 mmHg 79%
04:00 +1°C° 0 mm 6 mps 738 mmHg 80%
05:00 +1°C° 0 mm 6 mps 738 mmHg 81%
06:00 +1°C° 0 mm 6 mps 738 mmHg 83%
07:00 +1°C° 0 mm 6 mps 738 mmHg 84%
08:00 +2°C° 0.6 mm 6 mps 738 mmHg 81%
09:00 +3°C° 0.6 mm 6 mps 739 mmHg 79%
10:00 +3°C° 0.6 mm 6 mps 739 mmHg 77%
11:00 +5°C° 0.1 mm 6 mps 739 mmHg 69%
12:00 +6°C° 0.1 mm 7 mps 739 mmHg 62%
13:00 +8°C° 0.1 mm 7 mps 739 mmHg 55%
14:00 +8°C° 0 mm 7 mps 738 mmHg 55%
15:00 +8°C° 0 mm 7 mps 738 mmHg 55%
16:00 +8°C° 0 mm 7 mps 738 mmHg 55%
17:00 +7°C° 0 mm 6 mps 738 mmHg 59%
18:00 +5°C° 0 mm 6 mps 738 mmHg 63%
19:00 +6°C° 0 mm 5 mps 737 mmHg 67%
20:00 +5°C° 0 mm 6 mps 737 mmHg 70%
21:00 +5°C° 0 mm 6 mps 737 mmHg 72%
22:00 +5°C° 0 mm 6 mps 737 mmHg 75%
23:00 +5°C° 0 mm 7 mps 737 mmHg 75%

14 March, Sunday

Time Temperature Precipitation Wind Pressure Humidity
00:00 +5°C° 0 mm 7 mps 736 mmHg 75%
01:00 +4°C° 0 mm 7 mps 736 mmHg 75%
02:00 +4°C° 0 mm 7 mps 735 mmHg 75%
03:00 +4°C° 0 mm 7 mps 735 mmHg 75%
04:00 +4°C° 0 mm 7 mps 734 mmHg 74%
05:00 +4°C° 0 mm 6 mps 734 mmHg 74%
06:00 +5°C° 0 mm 6 mps 734 mmHg 73%
07:00 +5°C° 0 mm 6 mps 733 mmHg 72%
08:00 +6°C° 0 mm 7 mps 734 mmHg 70%
09:00 +6°C° 0 mm 8 mps 734 mmHg 69%
10:00 +7°C° 0 mm 9 mps 734 mmHg 68%
11:00 +7°C° 0.1 mm 9 mps 734 mmHg 63%
12:00 +7°C° 0.1 mm 8 mps 734 mmHg 57%
13:00 +6°C° 0.1 mm 7 mps 734 mmHg 52%
14:00 +6°C° 0 mm 7 mps 735 mmHg 53%
15:00 +6°C° 0 mm 7 mps 735 mmHg 53%
16:00 +5°C° 0 mm 6 mps 736 mmHg 53%
17:00 +5°C° 0 mm 6 mps 736 mmHg 58%
18:00 +5°C° 0 mm 5 mps 736 mmHg 62%
19:00 +4°C° 0 mm 4 mps 737 mmHg 66%
20:00 +4°C° 0 mm 4 mps 737 mmHg 68%
21:00 +3°C° 0 mm 4 mps 737 mmHg 70%
22:00 +3°C° 0 mm 4 mps 738 mmHg 72%
23:00 +1°C° 0 mm 4 mps 738 mmHg 74%
Show more

We Need Your Consent

Meteoprog and our Service Providers may store and access personal data such as cookies, device identifiers or other similar technologies on your device and process such data to personalise content and ads, as well as provide social media features and to analyse the traffic.

  • Store and/or access information on your device

    Cookies, device identifiers or other information can be stored or accessed on your device for the purposes indicated above.

  • Personalised ads and content, ad and content measurement, audience insights, and products development

    Ads and content can be personalised based on a profile. More data can be added to better personalise ads and content. Ad and content performance can be measured. Insights about the audience who saw the ads and content can be derived. Such data can be used to develop or improve user’s experience, systems and software.

By clicking ‘I Agree’ you will allow the use of indicated cookies, device identifiers, web beacons or other similar technologies. Your settings can be changed in the browser on your device.

For certain purposes, legitimate interests may be relied on, rather than consent. You can read more about this in our Privacy and Cookie Policy.